COSMOS 1275 DEB, 42116

Orbit data source: Space-Track

COSMOS 1275 DEB, 42116 is space debris in LEO originally from a launch on Thu, 04 Jun 1981 UTC launched from the Plesetsk Missile And Space Complex (PKMTR). Debris objects in space refer to the collection of defunct objects orbiting the Earth. Examples of debris include non-operational satellites, rocket bodies, and fragments generated from explosions, collisions, or faulty payload assembly.

Loading next visibility...
Identifier
42116, 1981-053QC
Orbit
LEO
Country
Flag of CISCIS
Related business
Manufacturer
Unknown
Mission
Spacecraft
Bus & Motor
Unknown
Mass
Unknown
Launch date (UTC)
1981-06-04 (45 years ago)
Launch vehicle
Unknown
Launch site
Plesetsk Missile And Space Complex (PKMTR)
Object type
Payload
Rocket body
Debris
Shape & HBR
Unknown shape, 0.1 m
Radar Cross Section
Small (<0.1 m²)

Expand to show TLE details & history
Last TLE update: 4 days ago

TLE from 4 days ago
0 COSMOS 1275 DEB
1 42116U 81053QC  26261.33169160  .00003457  00000-0  83539-3 0  9997
2 42116  83.1088 271.8556 0017425 170.5068 249.8925 14.52812855919586
Epoch: 2026-09-18T07:57Z
TLE epoch observation values (Epoch: 2026-09-18T07:57:38.154Z)
Latitude
59.59384°
Longitude
167.01083°
Altitude
730.893 km
Speed
7.493 km/s
True Right ascension
18h 54m 42s
True Declination
59° 26' 34"
Sunlit
Object was in daylight at epoch
Visualization orbit readout
Latitude
Unknown
Longitude
Unknown
Altitude
Unknown
Speed
Unknown
Apparent Right ascension
Unknown
Apparent Declination
Unknown
Sunlit
N/A
Visualization observer readout
Local Sidereal Time
00:51:41
Azimuth
Unknown
Elevation
Unknown
Doppler factor
Unknown
Orbital elements
Apogee altitude
725.869 km
Perigee altitude
701.154 km
Semi-major axis
7,091.649 km
Eccentricity
0.00174
Inclination
83.1088°
RAAN
271.8556°
Arg. of periapsis
170.5068°
True anomaly
249.70514°
Mean anomaly
249.8925°
Eccentric anomaly
249.7988°
Mean motion
3.63431 °/min
Orbital period
99.06 mins
BSTAR
0.00083539
Loading maneuver chart data...
Computing Atmospheric mass density...

Documentation

Showing up to 5 results
|